Weather History for KIRS - February, 2013

Change the Weather History Date:

Tuesday, February 26, 2013

  Actual Average (KHAI) Record (KHAI)
Temperature  
Mean Temperature 30 °F -  
Max Temperature 33 °F 37 °F 62 °F (1957)
Min Temperature 28 °F 18 °F -14 °F (1963)
Degree Days  
Heating Degree Days 34    
Moisture  
Dew Point 27 °F    
Average Humidity 83    
Maximum Humidity 100    
Minimum Humidity 65    
Precipitation  
Precipitation 0.00 in - - ()
Sea Level Pressure  
Sea Level Pressure 29.67 in    
Wind  
Wind Speed 12 mph (ENE)    
Max Wind Speed 24 mph    
Max Gust Speed 34 mph    
Visibility 6 miles    
Events Snow    
Averages and records for this station are not official NWS values.
T = Trace of Precipitation, MM = Missing Value Source: NWS Daily Summary

Daily Weather History Graph

Daily Weather History Graph

Search for Another Location

Airport or City:

Trip Planner

Search our weather history database for the weather conditions in past years. The results will help you decide how hot, cold, wet, or windy it might be!

Date:

Astronomy

Feb. 26, 2013 Rise Set
Actual Time 7:20 AM EST 6:28 PM EST
Civil Twilight 6:52 AM EST 6:56 PM EST
Nautical Twilight 6:20 AM EST 7:29 PM EST
Astronomical Twilight 5:48 AM EST 8:01 PM EST
Moon 7:46 PM EST (2/26) 7:21 AM EST (2/26)
Length of Visible Light 12h 03m
Length of Day
11h 07m
Full, 99% of the Moon is Illuminated
Feb 26
Full
Mar 4
Last Quarter
Mar 11
New
Mar 19
First Quarter
Mar 27
Full

Hourly Weather History & Observations

Time (EST) Temp. Windchill Dew Point Humidity Pressure Visibility Wind Dir Wind Speed Gust Speed Precip Events Conditions
12:15 AM 30.2 °F 21.3 °F 23.0 °F 75% 30.02 in 10.0 mi East 10.4 mph - N/A   Clear
12:34 AM 28.4 °F 18.5 °F 23.0 °F 80% 30.01 in 10.0 mi East 11.5 mph - N/A   Clear
12:55 AM 28.4 °F 17.5 °F 23.0 °F 80% 30.00 in 10.0 mi East 13.8 mph - N/A   Clear
1:15 AM 28.4 °F 18.5 °F 23.0 °F 80% 30.00 in 10.0 mi East 11.5 mph - N/A   Clear
1:34 AM 28.4 °F 19.1 °F 23.0 °F 80% 30.00 in 10.0 mi ENE 10.4 mph - N/A   Clear
1:55 AM 28.4 °F 17.5 °F 23.0 °F 80% 29.99 in 10.0 mi East 13.8 mph - N/A   Clear
2:15 AM 28.4 °F 18.5 °F 21.2 °F 74% 29.98 in 10.0 mi ENE 11.5 mph 16.1 mph N/A   Clear
2:34 AM 28.4 °F 18.0 °F 23.0 °F 80% 29.97 in 10.0 mi East 12.7 mph - N/A   Clear
2:55 AM 28.4 °F 17.5 °F 23.0 °F 80% 29.96 in 10.0 mi East 13.8 mph 18.4 mph N/A   Clear
3:15 AM 28.4 °F 17.5 °F 23.0 °F 80% 29.94 in 10.0 mi East 13.8 mph 18.4 mph N/A   Clear
3:35 AM 28.4 °F 17.0 °F 23.0 °F 80% 29.93 in 10.0 mi ENE 15.0 mph 18.4 mph N/A   Clear
3:55 AM 28.4 °F 18.0 °F 23.0 °F 80% 29.92 in 10.0 mi ENE 12.7 mph 18.4 mph N/A   Clear
4:14 AM 28.4 °F 17.0 °F 23.0 °F 80% 29.89 in 10.0 mi ENE 15.0 mph 20.7 mph N/A   Clear
4:35 AM 28.4 °F 18.0 °F 21.2 °F 74% 29.87 in 10.0 mi ENE 12.7 mph - N/A   Clear
4:55 AM 28.4 °F 17.5 °F 21.2 °F 74% 29.87 in 10.0 mi ENE 13.8 mph 19.6 mph N/A   Clear
5:14 AM 28.4 °F 18.0 °F 21.2 °F 74% 29.89 in 10.0 mi East 12.7 mph - N/A   Clear
5:35 AM 28.4 °F 18.0 °F 21.2 °F 74% 29.87 in 10.0 mi East 12.7 mph 18.4 mph N/A   Clear
5:55 AM 28.4 °F 16.2 °F 21.2 °F 74% 29.85 in 10.0 mi ENE 17.3 mph - N/A   Clear
6:14 AM 28.4 °F 16.2 °F 21.2 °F 74% 29.85 in 10.0 mi ENE 17.3 mph 23.0 mph N/A   Clear
6:35 AM 28.4 °F 15.8 °F 21.2 °F 74% 29.81 in 10.0 mi ENE 18.4 mph 25.3 mph N/A   Clear
6:54 AM 30.2 °F 17.8 °F 21.2 °F 69% 29.82 in 10.0 mi ENE 19.6 mph 26.5 mph N/A   Clear
7:15 AM 30.2 °F 19.8 °F 23.0 °F 75% 29.85 in 10.0 mi East 13.8 mph - N/A   Clear
7:34 AM 30.2 °F 18.5 °F 23.0 °F 75% 29.82 in 10.0 mi ENE 17.3 mph 24.2 mph N/A   Clear
7:55 AM 30.2 °F 18.9 °F 23.0 °F 75% 29.82 in 10.0 mi ENE 16.1 mph 24.2 mph N/A   Scattered Clouds
8:15 AM 30.2 °F 18.1 °F 23.0 °F 75% 29.81 in 10.0 mi East 18.4 mph 25.3 mph N/A   Clear
8:34 AM 30.2 °F 17.1 °F 23.0 °F 75% 29.79 in 10.0 mi East 21.9 mph 27.6 mph N/A   Clear
8:54 AM 32.0 °F 20.8 °F 23.0 °F 69% 29.80 in 10.0 mi East 17.3 mph 26.5 mph N/A   Clear
9:35 AM 33.8 °F 23.5 °F 23.0 °F 65% 29.75 in 10.0 mi East 16.1 mph 25.3 mph N/A   Clear
9:54 AM 33.8 °F 22.8 °F 23.0 °F 65% 29.73 in 10.0 mi East 18.4 mph 23.0 mph N/A   Clear
10:15 AM 33.8 °F 21.3 °F 23.0 °F 65% 29.70 in 10.0 mi East 24.2 mph 34.5 mph N/A   Clear
10:35 AM 33.8 °F 21.9 °F 24.8 °F 70% 29.68 in 10.0 mi East 21.9 mph 32.2 mph N/A   Mostly Cloudy
10:54 AM 33.8 °F 21.6 °F 24.8 °F 70% 29.68 in 10.0 mi East 23.0 mph 26.5 mph N/A   Mostly Cloudy
11:15 AM 33.8 °F 22.2 °F 26.6 °F 75% 29.67 in 3.0 mi East 20.7 mph 25.3 mph N/A   Overcast
11:34 AM 33.8 °F 24.3 °F 28.4 °F 81% 29.66 in 3.0 mi East 13.8 mph 23.0 mph N/A   Overcast
11:55 AM 33.8 °F 23.9 °F 28.4 °F 81% 29.63 in 3.0 mi East 15.0 mph 20.7 mph N/A   Overcast
12:15 PM 33.8 °F 23.9 °F 28.4 °F 81% 29.60 in 4.0 mi East 15.0 mph 21.9 mph N/A   Mostly Cloudy
12:34 PM 33.8 °F 25.3 °F 28.4 °F 81% 29.59 in 5.0 mi East 11.5 mph - N/A   Mostly Cloudy
12:55 PM 32.0 °F 23.0 °F 28.4 °F 87% 29.57 in 4.0 mi East 11.5 mph 17.3 mph N/A   Overcast
1:15 PM 32.0 °F 23.6 °F 28.4 °F 87% 29.55 in 4.0 mi East 10.4 mph 16.1 mph N/A   Overcast
1:34 PM 32.0 °F 24.2 °F 28.4 °F 87% 29.56 in 2.5 mi East 9.2 mph - N/A Snow Light Snow
1:55 PM 32.0 °F 24.2 °F 30.2 °F 93% 29.55 in 3.0 mi East 9.2 mph - N/A   Overcast
2:15 PM 32.0 °F 26.4 °F 30.2 °F 93% 29.55 in 3.0 mi East 5.8 mph - N/A   Overcast
2:34 PM 32.0 °F 25.6 °F 30.2 °F 93% 29.53 in 2.0 mi East 6.9 mph - N/A Snow Light Snow
2:55 PM 33.8 °F 27.0 °F 30.2 °F 87% 29.52 in 1.2 mi East 8.1 mph - N/A Snow Light Snow
3:15 PM 33.8 °F 27.0 °F 30.2 °F 87% 29.51 in 5.0 mi East 8.1 mph - N/A Snow Light Snow
3:34 PM 33.8 °F 27.0 °F 30.2 °F 87% 29.51 in 4.0 mi East 8.1 mph - N/A Snow Light Snow
3:55 PM 33.8 °F 27.0 °F 30.2 °F 87% 29.51 in 4.0 mi East 8.1 mph - N/A Snow Light Snow
4:08 PM 33.8 °F 27.7 °F 30.2 °F 87% 29.50 in 4.0 mi East 6.9 mph - N/A Snow Light Snow
4:35 PM 33.8 °F 28.6 °F 30.2 °F 87% 29.50 in 4.0 mi East 5.8 mph - N/A   Unknown
4:55 PM 33.8 °F 27.7 °F 30.2 °F 87% 29.50 in 4.0 mi East 6.9 mph - N/A   Unknown
5:15 PM 33.8 °F 27.7 °F 30.2 °F 87% 29.50 in 4.0 mi East 6.9 mph - N/A   Unknown
5:55 PM 33.8 °F 27.7 °F 30.2 °F 87% 29.49 in 4.0 mi East 6.9 mph - N/A Snow Light Snow
6:15 PM 33.8 °F 28.6 °F 30.2 °F 87% 29.48 in 2.5 mi East 5.8 mph - N/A Snow Light Snow
6:35 PM 33.8 °F 30.8 °F 30.2 °F 87% 29.48 in 2.0 mi East 3.5 mph - N/A Snow Light Snow
6:54 PM 33.8 °F 29.6 °F 32.0 °F 93% 29.48 in 1.5 mi ENE 4.6 mph - N/A Snow Light Snow
7:14 PM 32.0 °F 26.4 °F 30.2 °F 93% 29.49 in 1.2 mi ENE 5.8 mph - N/A Snow Light Snow
7:35 PM 32.0 °F 27.5 °F 30.2 °F 93% 29.48 in 1.2 mi ENE 4.6 mph - N/A Snow Light Snow
7:55 PM 32.0 °F 27.5 °F 30.2 °F 93% 29.48 in 1.8 mi ENE 4.6 mph - N/A Snow Light Snow
8:14 PM 32.0 °F 27.5 °F 30.2 °F 93% 29.48 in 1.5 mi ENE 4.6 mph - N/A Snow Light Snow
8:35 PM 32.0 °F 27.5 °F 32.0 °F 100% 29.47 in 1.8 mi ENE 4.6 mph - N/A Snow Light Snow
8:55 PM 33.8 °F 30.8 °F 32.0 °F 93% 29.46 in 7.0 mi ENE 3.5 mph - N/A Snow Light Snow
9:15 PM 33.8 °F - 32.0 °F 93% 29.46 in 5.0 mi Calm Calm - N/A Snow Light Snow
9:35 PM 33.8 °F 30.8 °F 32.0 °F 93% 29.47 in 2.5 mi ENE 3.5 mph - N/A Snow Light Snow
9:54 PM 33.8 °F 30.8 °F 32.0 °F 93% 29.46 in 3.0 mi NE 3.5 mph - N/A Snow Light Snow
10:15 PM 33.8 °F 30.8 °F 32.0 °F 93% 29.45 in 4.0 mi NE 3.5 mph - N/A Snow Light Snow
10:35 PM 32.0 °F 28.7 °F 32.0 °F 100% 29.45 in 3.0 mi NE 3.5 mph - N/A Snow Light Snow
10:54 PM 33.8 °F 30.8 °F 32.0 °F 93% 29.44 in 7.0 mi NE 3.5 mph - N/A   Overcast
11:15 PM 32.0 °F - 32.0 °F 100% 29.44 in 5.0 mi Calm Calm - N/A   Overcast
11:35 PM 33.8 °F - 32.0 °F 93% 29.44 in 7.0 mi Calm Calm - N/A Snow Light Snow
11:54 PM 32.0 °F - 32.0 °F 100% 29.43 in 4.0 mi Calm Calm - N/A Snow Light Snow